[[{"header":{"parameterUnit":"m.s-1","parameterCategory":1,"la1":30.2991,"la2":30.254,"lo1":-89.0895,"lo2":-89.0444,"dy":0.0017,"dx":0.0017,"nx":28,"ny":28,"refTime":"2024-12-07T09:00:00:Z","depth":0,"parameterNumber":2,"parameterNumberName":"U-component_of_WINDS"},"data":[0,0,0,0,0,0,0,0,0,0,0,0,0,0,0,0,0,0,0,0,0,0,0,0,0,0,0,0,0,0,0,0,0,0,0,0,0,0,0,0,0,0,0,0,0,0,0,0,0,0,0,0,0,0,0,0,0,0,-3.4058,-3.4059,0,-3.4157,-3.4158,-3.4159,-3.4098,-3.4095,-3.4093,-3.409,-3.4194,-3.4199,-3.4204,0,0,0,0,0,0,0,0,0,0,0,0,0,-3.3819,-3.3824,-3.4057,-3.4059,-3.406,-3.4156,-3.4158,-3.4159,-3.4099,-3.4095,-3.4092,-3.4089,-3.4192,-3.4198,-3.4205,0,0,0,0,0,0,0,0,0,0,0,0,0,-3.3921,-3.3825,-3.4057,-3.4041,-3.4041,-3.4156,-3.4158,-3.416,-3.41,-3.4095,-3.4091,-3.4087,-3.419,-3.4198,-3.4206,-3.4343,0,0,-3.4231,-3.4234,0,0,0,0,0,0,0,0,-3.3915,-3.393,-3.4043,-3.4043,-3.4042,-3.4111,-3.4112,-3.4221,-3.4101,-3.4077,-3.409,-3.4085,-3.417,-3.4179,-3.4207,-3.4348,-3.4352,-3.4231,-3.4236,-3.424,-3.4242,0,0,0,0,0,0,0,-3.3908,-3.3925,-3.4097,-3.4044,-3.4044,-3.403,-3.404,-3.4132,-3.4147,-3.4079,-3.4075,-3.4087,-3.4169,-3.42,-3.4209,-3.4354,-3.4231,-3.4238,-3.4244,-3.4247,-3.4613,-3.4617,0,0,0,0,0,0,-3.3902,-3.392,-3.4094,-3.41,-3.3967,-3.4038,-3.4049,-3.4093,-3.4145,-3.4149,-3.4091,-3.4084,-3.4188,-3.42,-3.4213,-3.4377,-3.424,-3.4248,-3.4252,-3.4608,-3.4614,-3.4619,0,0,0,0,0,0,-3.3897,-3.3918,-3.409,-3.4009,-3.4029,-3.4047,-3.4097,-3.4097,-3.4128,-3.4154,-3.4157,-3.412,-3.4185,-3.4201,-3.4311,-3.438,-3.4251,-3.4259,-3.4602,-3.461,-3.4616,-3.4706,0,0,0,0,0,0,-3.3891,-3.3917,-3.3968,-3.401,-3.4034,-3.4186,-3.4101,-3.4102,-3.4142,-3.4134,-3.4182,-3.4186,-3.4183,-3.4299,-3.4319,-3.4389,-3.4265,-3.4596,-3.4605,-3.4614,-3.4697,-3.4716,-3.4731,0,0,0,0,0,-3.3882,-3.399,-3.3971,-3.3992,-3.4098,-3.4189,-3.4203,-3.4197,-3.4148,-3.42,-3.4217,-3.4184,-3.4369,-3.4311,-3.4333,-3.4406,-3.4592,-3.4603,-3.4613,-3.469,-3.4712,-3.4731,0,0,0,0,0,0,-3.3956,-3.3995,-3.3975,-3.4099,-3.4141,-3.4179,-3.4245,-3.4221,-3.4278,-3.4269,-3.4259,-3.4271,-3.4385,-3.4407,-3.4341,-3.4542,-3.4473,-3.4489,-3.4523,-3.4545,-3.4562,-3.4554,-3.4272,0,0,0,0,0,-3.3987,-3.4056,-3.4087,-3.4194,-3.4216,-3.4227,-3.4267,-3.4258,-3.4302,-3.432,-3.4345,-3.4389,-3.4458,-3.4503,-3.4567,-3.4701,-3.471,-3.4762,-3.4779,-3.4793,-3.4806,-3.4879,-3.4902,-3.4654,-3.4654,-3.4654,0,0,-3.4051,-3.4081,-3.4125,-3.4209,-3.4241,-3.4315,-3.4243,-3.4323,-3.4378,-3.4332,-3.4437,-3.4457,-3.4507,-3.4629,-3.4684,-3.465,-3.4877,-3.4807,-3.4818,-3.4823,-3.4893,-3.4916,-3.4937,-3.4662,-3.466,-3.4659,0,0,-3.4204,-3.4234,-3.4326,-3.436,-3.4409,-3.4416,-3.4438,-3.448,-3.4492,-3.4597,-3.4565,-3.463,-3.4748,-3.4784,-3.4818,-3.4988,-3.496,-3.5009,-3.5098,-3.517,-3.5189,-3.5206,-3.5267,-3.5289,-3.5023,-3.5023,-3.5023,0,-3.4278,-3.4386,-3.4377,-3.446,-3.4499,-3.4461,-3.4555,-3.4588,-3.4656,-3.4684,-3.4645,-3.4793,-3.4823,-3.4954,-3.4995,-3.5024,-3.505,-3.5003,-3.5187,-3.5204,-3.522,-3.5278,-3.53,-3.5029,-3.5028,-3.5028,-3.5027,0,-3.4474,-3.455,-3.4619,-3.4685,-3.4731,-3.4819,-3.4825,-3.4873,-3.4862,-3.4873,-3.4981,-3.5017,-3.5088,-3.5118,-3.5108,-3.5248,-3.5226,-3.5187,-3.5118,-3.5249,-3.5303,-3.5325,-3.5037,-3.5035,-3.5033,-3.5032,0,0,-3.4675,-3.4736,-3.4761,-3.4791,-3.4844,-3.4902,-3.499,-3.5059,-3.5101,-3.515,-3.5223,-3.5324,-3.5289,-3.5328,-3.5321,-3.5384,-3.5516,-3.5338,-3.5339,-3.5369,-3.5674,-3.5701,-3.5727,-3.5499,-3.5503,-3.5506,-3.5669,0,-3.4832,-3.4983,-3.4978,-3.512,-3.519,-3.5156,-3.5232,-3.5274,-3.5287,-3.535,-3.5365,-3.5437,-3.5385,-3.5408,-3.5469,-3.5487,-3.5577,-3.5476,-3.5567,-3.557,-3.5554,-3.5755,-3.5784,-3.5936,-3.569,-3.5694,-3.5696,0,-3.5034,-3.5089,-3.5237,-3.528,-3.5309,-3.5378,-3.5441,-3.5501,-3.5548,-3.5553,-3.5598,-3.5581,-3.5671,-3.56,-3.5724,-3.5655,-3.5693,-3.5708,-3.5713,-3.5721,-3.564,-3.5767,-3.5985,-3.6007,-3.573,-3.5727,-3.5724,0,-3.5165,-3.5277,-3.538,-3.5407,-3.5459,-3.5508,-3.5533,-3.5575,-3.5617,-3.5673,-3.57,-3.5767,-3.5803,-3.5855,-3.5857,-3.5805,-3.5983,-3.5911,-3.599,-3.599,-3.6027,-3.6025,-3.6253,-3.6054,-3.6053,-3.6053,-3.6052,0,-3.534,-3.5432,-3.544,-3.5503,-3.5606,-3.5601,-3.5702,-3.5722,-3.576,-3.5828,-3.5804,-3.5867,-3.5868,-3.5933,-3.5936,-3.6038,-3.6055,-3.6062,-3.6062,-3.6064,-3.6063,-3.6087,-3.6076,-3.6059,-3.6058,-3.6056,-3.6055,0,-3.5503,-3.5512,-3.5622,-3.5663,-3.5676,-3.575,-3.5785,-3.5846,-3.5858,-3.5944,-3.5964,-3.5983,-3.6059,-3.6067,-3.6156,-3.6158,-3.6281,-3.627,-3.6265,-3.6263,-3.634,-3.6332,-3.6591,-3.6625,-3.6405,-3.6407,-3.6408,0,-3.5613,-3.5683,-3.5732,-3.5775,-3.5802,-3.5872,-3.5914,-3.5913,-3.5959,-3.6018,-3.6072,-3.6146,-3.6204,-3.6328,-3.635,-3.6418,-3.6408,-3.6494,-3.6418,-3.6418,-3.6408,-3.6403,-3.641,-3.6508,-3.6511,-3.6513,-3.6514,0,-3.5807,-3.5809,-3.5871,-3.5936,-3.5987,-3.6038,-3.6086,-3.6123,-3.6128,-3.6181,-3.6258,-3.6304,-3.6395,-3.6468,-3.6536,-3.6561,-3.6539,-3.6538,-3.656,-3.6562,-3.6556,-3.6559,-3.6304,-3.6532,-3.653,-3.6529,-3.6528,-3.6527,-3.5947,-3.6007,-3.6051,-3.6122,-3.6158,-3.6203,-3.6262,-3.6282,-3.6346,-3.6419,-3.6416,-3.6501,-3.6547,-3.6635,-3.6666,-3.6734,-3.6705,-3.6736,-3.6744,-3.6751,-3.6759,-3.6547,-3.6746,-3.6746,-3.6745,-3.6745,-3.6744,0,-3.6139,-3.6166,-3.6231,-3.6298,-3.6354,-3.6329,-3.6381,-3.6429,-3.6504,-3.6549,-3.6608,-3.6697,-3.6769,-3.6797,-3.6868,-3.6916,-3.6908,-3.6935,-3.693,-3.6937,-3.6781,-3.6755,-3.694,-3.694,-3.694,-3.694,-3.694,-3.694,-3.6245,-3.6346,-3.6353,-3.6473,-3.6499,-3.6582,-3.6614,-3.6657,-3.6692,-3.6793,-3.6852,-3.687,-3.6909,-3.6982,-3.7047,-3.7054,-3.708,-3.7112,-3.7114,-3.6967,-3.6948,-3.6929,-3.6904,-3.7118,-3.7118,-3.7264,-3.7265,-3.7266]},{"header":{"parameterUnit":"m.s-1","parameterCategory":1,"la1":30.2991,"la2":30.254,"lo1":-89.0895,"lo2":-89.0444,"dy":0.0017,"dx":0.0017,"nx":28,"ny":28,"refTime":"2024-12-07T09:00:00:Z","depth":0,"parameterNumber":3,"parameterNumberName":"V-component_of_WINDS"},"data":[0,0,0,0,0,0,0,0,0,0,0,0,0,0,0,0,0,0,0,0,0,0,0,0,0,0,0,0,0,0,0,0,0,0,0,0,0,0,0,0,0,0,0,0,0,0,0,0,0,0,0,0,0,0,0,0,0,0,0.3409,0.3409,0,0.3457,0.3458,0.3458,0.3478,0.3478,0.3477,0.3477,0.3529,0.353,0.3532,0,0,0,0,0,0,0,0,0,0,0,0,0,0.3336,0.3337,0.3408,0.3409,0.341,0.3457,0.3458,0.3458,0.3478,0.3478,0.3477,0.3477,0.3528,0.353,0.3532,0,0,0,0,0,0,0,0,0,0,0,0,0,0.3374,0.3337,0.3408,0.3425,0.3427,0.3457,0.3458,0.3459,0.3478,0.3478,0.3477,0.3477,0.3528,0.353,0.3532,0.355,0,0,0.3539,0.354,0,0,0,0,0,0,0,0,0.3372,0.3377,0.3422,0.3424,0.3426,0.3461,0.3451,0.3489,0.3478,0.3458,0.3477,0.3477,0.3507,0.3511,0.352,0.3552,0.3554,0.3539,0.354,0.3541,0.3542,0,0,0,0,0,0,0,0.3369,0.3375,0.3428,0.3423,0.3425,0.3431,0.3436,0.3458,0.3483,0.346,0.3462,0.3467,0.3508,0.3518,0.3521,0.3555,0.3539,0.3541,0.3542,0.3543,0.3607,0.3608,0,0,0,0,0,0,0.3364,0.3372,0.3426,0.3429,0.3398,0.3433,0.3438,0.345,0.3483,0.3488,0.3467,0.3468,0.3514,0.3519,0.3523,0.3548,0.3541,0.3544,0.3545,0.3607,0.3607,0.3608,0,0,0,0,0,0,0.3362,0.3368,0.3424,0.3401,0.3409,0.3434,0.3447,0.3451,0.3461,0.3488,0.3493,0.3473,0.3514,0.352,0.3544,0.355,0.3545,0.3547,0.3606,0.3607,0.3607,0.3596,0,0,0,0,0,0,0.336,0.3367,0.3373,0.3401,0.341,0.3443,0.3447,0.3452,0.3465,0.3466,0.3495,0.3499,0.3515,0.354,0.3546,0.3553,0.3548,0.3606,0.3607,0.3607,0.3596,0.3596,0.3597,0,0,0,0,0,0.3357,0.3368,0.3373,0.338,0.3418,0.3443,0.3448,0.3465,0.3465,0.3472,0.349,0.3498,0.3548,0.3542,0.3549,0.3557,0.3606,0.3606,0.3607,0.3596,0.3596,0.3597,0,0,0,0,0,0,0.334,0.3372,0.3378,0.3398,0.3418,0.3446,0.3455,0.3464,0.3484,0.3484,0.3505,0.3511,0.3534,0.3548,0.354,0.3577,0.3578,0.358,0.3567,0.3568,0.3568,0.3564,0.355,0,0,0,0,0,0.3339,0.3355,0.3383,0.3398,0.3407,0.343,0.3441,0.3453,0.3474,0.3482,0.3501,0.3522,0.3543,0.3556,0.3576,0.3598,0.3606,0.3607,0.3608,0.3608,0.3609,0.3625,0.3626,0.361,0.361,0.361,0,0,0.3336,0.3355,0.3365,0.3395,0.3411,0.343,0.3436,0.3455,0.3469,0.3485,0.3509,0.3524,0.3548,0.3572,0.3583,0.3584,0.3616,0.3609,0.3608,0.361,0.3626,0.3627,0.3629,0.3611,0.3611,0.3611,0,0,0.3341,0.3356,0.3372,0.3388,0.3413,0.3428,0.3432,0.346,0.347,0.3494,0.3507,0.3525,0.3559,0.3577,0.3591,0.3605,0.3615,0.3611,0.3612,0.3627,0.3628,0.363,0.3637,0.3639,0.3613,0.3613,0.3613,0,0.3334,0.3361,0.3379,0.3397,0.3411,0.3427,0.3444,0.3459,0.3489,0.3499,0.35,0.3545,0.3563,0.3592,0.3596,0.3606,0.3612,0.3608,0.3627,0.3628,0.363,0.3637,0.3639,0.3612,0.3612,0.3613,0.3613,0,0.3353,0.3372,0.3382,0.3411,0.3426,0.3444,0.3465,0.3479,0.3489,0.3505,0.3531,0.3553,0.3579,0.3587,0.3597,0.3618,0.3618,0.3622,0.3624,0.363,0.3637,0.364,0.3612,0.3612,0.3612,0.3612,0,0,0.3347,0.3387,0.3391,0.3405,0.3435,0.3451,0.347,0.3496,0.3508,0.3529,0.3547,0.3577,0.3582,0.3597,0.361,0.3623,0.3635,0.3626,0.3627,0.3628,0.3663,0.366,0.3663,0.3642,0.3642,0.3642,0.3661,0,0.3357,0.3391,0.3409,0.3436,0.3455,0.3472,0.3489,0.351,0.3526,0.3545,0.3563,0.3584,0.3588,0.3598,0.3611,0.3631,0.3643,0.363,0.366,0.3661,0.3654,0.3666,0.3663,0.3679,0.3664,0.3664,0.3665,0,0.3372,0.3394,0.3423,0.3453,0.3462,0.3476,0.3503,0.3521,0.3546,0.3556,0.3575,0.3588,0.3611,0.361,0.3643,0.3634,0.3648,0.366,0.3661,0.3665,0.3664,0.3672,0.3685,0.3688,0.3669,0.3668,0.3668,0,0.3367,0.3403,0.3426,0.3438,0.3473,0.3483,0.3499,0.3523,0.3539,0.3562,0.3572,0.3598,0.3612,0.3633,0.3653,0.365,0.3685,0.3686,0.3696,0.3696,0.3703,0.3703,0.372,0.371,0.371,0.371,0.371,0,0.3376,0.3394,0.3425,0.3439,0.346,0.3481,0.3502,0.3518,0.3541,0.356,0.3576,0.3594,0.3619,0.364,0.3657,0.3683,0.3689,0.37,0.3704,0.3699,0.3698,0.3709,0.3709,0.3711,0.371,0.371,0.371,0,0.3374,0.3394,0.3421,0.3452,0.3461,0.3476,0.3503,0.3519,0.3536,0.356,0.3567,0.3594,0.3621,0.3643,0.3678,0.3689,0.3717,0.3721,0.3708,0.3711,0.3721,0.372,0.3747,0.3752,0.3737,0.3737,0.3737,0,0.3378,0.3393,0.3426,0.344,0.3455,0.3477,0.3493,0.3515,0.3531,0.3562,0.3575,0.3602,0.3626,0.3668,0.3691,0.3719,0.3725,0.3732,0.3729,0.3724,0.3727,0.3727,0.3729,0.3733,0.3733,0.3733,0.3733,0,0.3386,0.3396,0.3418,0.3444,0.3463,0.3485,0.3507,0.3518,0.3544,0.3562,0.359,0.3608,0.3644,0.3672,0.3703,0.372,0.3732,0.3734,0.3738,0.3733,0.3726,0.3732,0.371,0.3733,0.3733,0.3733,0.3733,0.3733,0.3388,0.3402,0.3429,0.3454,0.3473,0.3494,0.3511,0.3531,0.3554,0.3585,0.3597,0.3626,0.3654,0.3696,0.3713,0.3737,0.3739,0.3744,0.3746,0.3748,0.3748,0.3721,0.3743,0.3743,0.3743,0.3743,0.3743,0,0.3397,0.3416,0.3438,0.347,0.349,0.3499,0.3525,0.3542,0.3566,0.3591,0.3614,0.3647,0.3675,0.3702,0.3732,0.3746,0.3752,0.3753,0.3753,0.3758,0.3744,0.3738,0.3748,0.3748,0.3748,0.3748,0.3748,0.3748,0.3404,0.343,0.3444,0.348,0.3499,0.3527,0.3542,0.3562,0.3582,0.3618,0.3642,0.3659,0.3686,0.3718,0.3745,0.3752,0.3763,0.3763,0.3772,0.3759,0.3758,0.3757,0.3752,0.3765,0.3765,0.3784,0.3785,0.3785]}]]